| time (UTC) | temp F | wind direction | speed knots | gust knots | rain 1hr in | rain 24hr in | rain mn in | humidity % | barometer mb |
| 20260903041316 | 62 | 262 | 5.2 | 10.4 | 0.00 | 0.09 | 0.01 | 90 | 1009.7 |
| 20260903040816 | 62 | 258 | 6.1 | 10.4 | 0.00 | 0.09 | 0.01 | 90 | 1009.9 |
| 20260903040317 | 62 | 233 | 4.3 | 7.8 | 0.00 | 0.09 | 0.01 | 91 | 1009.9 |
| 20260903034817 | 62 | 238 | 4.3 | 7.0 | 0.00 | 0.09 | 0.01 | 92 | 1009.8 |
| 20260903033317 | 62 | 242 | 4.3 | 12.2 | 0.00 | 0.09 | 0.01 | 92 | 1009.8 |
| 20260903032816 | 62 | 250 | 5.2 | 10.4 | 0.00 | 0.09 | 0.01 | 92 | 1009.7 |
| 20260903032316 | 62 | 249 | 4.3 | 8.7 | 0.00 | 0.09 | 0.01 | 92 | 1009.8 |
| 20260903031816 | 62 | 249 | 5.2 | 8.7 | 0.00 | 0.09 | 0.01 | 92 | 1009.6 |
| 20260903031316 | 62 | 248 | 5.2 | 11.3 | 0.00 | 0.09 | 0.01 | 92 | 1009.5 |
| 20260903030816 | 62 | 234 | 6.1 | 12.2 | 0.00 | 0.09 | 0.01 | 92 | 1009.7 |
| 20260903030316 | 63 | 245 | 6.1 | 11.3 | 0.00 | 0.09 | 0.01 | 92 | 1009.7 |
| 20260903025816 | 63 | 257 | 6.1 | 13.0 | 0.00 | 0.09 | 0.01 | 92 | 1009.6 |
| 20260903024316 | 63 | 239 | 5.2 | 10.4 | 0.00 | 0.09 | 0.01 | 92 | 1009.7 |
| 20260903023816 | 63 | 256 | 7.0 | 11.3 | 0.00 | 0.09 | 0.01 | 91 | 1009.6 |
| 20260903023316 | 63 | 249 | 6.1 | 12.2 | 0.00 | 0.09 | 0.01 | 91 | 1009.7 |
| 20260903022816 | 63 | 239 | 5.2 | 12.2 | 0.00 | 0.09 | 0.01 | 91 | 1009.7 |
| 20260903022316 | 63 | 235 | 4.3 | 8.7 | 0.00 | 0.09 | 0.01 | 92 | 1009.6 |
| 20260903020816 | 63 | 226 | 6.1 | 13.0 | 0.00 | 0.09 | 0.01 | 91 | 1009.8 |
| 20260903020316 | 63 | 241 | 6.1 | 10.4 | 0.00 | 0.09 | 0.01 | 91 | 1010.0 |
| 20260903015316 | 63 | 251 | 7.0 | 13.9 | 0.00 | 0.09 | 0.01 | 91 | 1010.0 |
| 20260903014816 | 64 | 240 | 7.8 | 12.2 | 0.00 | 0.09 | 0.01 | 90 | 1010.0 |
| 20260903014316 | 64 | 245 | 8.7 | 13.0 | 0.00 | 0.09 | 0.01 | 90 | 1009.9 |
| 20260903013816 | 64 | 237 | 7.8 | 15.6 | 0.00 | 0.09 | 0.01 | 90 | 1009.8 |
| 20260903013317 | 64 | 244 | 5.2 | 10.4 | 0.00 | 0.09 | 0.01 | 90 | 1009.8 |
| 20260903012816 | 63 | 245 | 6.1 | 12.2 | 0.00 | 0.09 | 0.01 | 91 | 1009.8 |
| 20260903012316 | 63 | 242 | 5.2 | 10.4 | 0.00 | 0.09 | 0.01 | 91 | 1009.7 |
| 20260903011816 | 63 | 250 | 6.1 | 11.3 | 0.01 | 0.09 | 0.01 | 91 | 1009.7 |
| 20260903011316 | 63 | 245 | 7.0 | 13.0 | 0.01 | 0.09 | 0.01 | 92 | 1009.7 |
| 20260903010815 | 63 | 224 | 6.1 | 13.9 | 0.01 | 0.09 | 0.01 | 92 | 1009.7 |
| 20260903010316 | 63 | 231 | 4.3 | 10.4 | 0.01 | 0.09 | 0.01 | 92 | 1009.4 |
| 20260903005816 | 63 | 220 | 4.3 | 11.3 | 0.01 | 0.09 | 0.01 | 92 | 1009.5 |
| 20260903005316 | 63 | 253 | 5.2 | 11.3 | 0.01 | 0.09 | 0.01 | 92 | 1009.5 |
| 20260903003816 | 63 | 240 | 5.2 | 10.4 | 0.01 | 0.09 | 0.01 | 92 | 1009.9 |
| 20260903003316 | 63 | 228 | 5.2 | 10.4 | 0.01 | 0.09 | 0.01 | 92 | 1009.7 |
| 20260903002817 | 63 | 216 | 7.0 | 13.9 | 0.01 | 0.09 | 0.01 | 92 | 1009.7 |
| 20260903002316 | 63 | 234 | 5.2 | 12.2 | 0.01 | 0.09 | 0.01 | 92 | 1009.7 |
| 20260903001816 | 63 | 229 | 5.2 | 8.7 | 0.00 | 0.08 | 0.00 | 92 | 1009.9 |
| 20260903001315 | 63 | 232 | 4.3 | 12.2 | 0.00 | 0.08 | 0.00 | 92 | 1009.9 |
| 20260903000816 | 63 | 216 | 5.2 | 10.4 | 0.00 | 0.08 | 0.00 | 92 | 1010.0 |
| 20260903000317 | 63 | 219 | 3.5 | 6.1 | 0.00 | 0.08 | 0.00 | 92 | 1010.1 |
| 20260902235816 | 63 | 221 | 4.3 | 10.4 | 0.00 | 0.08 | 0.00 | 92 | 1010.1 |
| 20260902235315 | 63 | 239 | 3.5 | 7.0 | 0.00 | 0.08 | 0.00 | 92 | 1010.1 |
| 20260902234816 | 63 | 228 | 4.3 | 8.7 | 0.00 | 0.08 | 0.00 | 92 | 1010.1 |
| 20260902234315 | 63 | 238 | 5.2 | 8.7 | 0.00 | 0.08 | 0.00 | 92 | 1010.0 |
| 20260902233816 | 63 | 209 | 4.3 | 10.4 | 0.00 | 0.08 | 0.00 | 92 | 1010.0 |
| 20260902232815 | 63 | 229 | 3.5 | 7.0 | 0.00 | 0.08 | 0.00 | 93 | 1010.3 |
| 20260902232316 | 63 | 241 | 2.6 | 6.1 | 0.00 | 0.08 | 0.00 | 93 | 1010.2 |
| 20260902231816 | 63 | 219 | 3.5 | 6.1 | 0.01 | 0.08 | 0.00 | 93 | 1010.2 |
| 20260902231315 | 63 | 225 | 2.6 | 7.8 | 0.02 | 0.08 | 0.00 | 93 | 1010.3 |
| 20260902230856 | 63 | 216 | 4.3 | 7.8 | 0.02 | 0.08 | 0.00 | 93 | 1010.2 |
| 20260902230316 | 63 | 225 | 4.3 | 7.0 | 0.02 | 0.08 | 0.00 | 93 | 1010.2 |
| 20260902225816 | 63 | 226 | 4.3 | 7.8 | 0.02 | 0.08 | 0.08 | 93 | 1010.2 |
| 20260902225316 | 63 | 212 | 5.2 | 12.2 | 0.02 | 0.08 | 0.08 | 93 | 1010.4 |
| 20260902224816 | 63 | 213 | 5.2 | 12.2 | 0.02 | 0.08 | 0.08 | 93 | 1010.3 |
| 20260902224316 | 63 | 203 | 6.1 | 10.4 | 0.02 | 0.08 | 0.08 | 93 | 1010.2 |
| 20260902223315 | 63 | 207 | 4.3 | 8.7 | 0.02 | 0.08 | 0.08 | 93 | 1010.2 |
| 20260902221816 | 63 | 206 | 4.3 | 7.0 | 0.02 | 0.08 | 0.08 | 92 | 1010.5 |
| 20260902221317 | 63 | 207 | 4.3 | 7.8 | 0.00 | 0.06 | 0.06 | 92 | 1010.4 |
| 20260902220815 | 63 | 214 | 4.3 | 8.7 | 0.00 | 0.06 | 0.06 | 92 | 1010.4 |
| 20260902220316 | 63 | 236 | 3.5 | 6.1 | 0.00 | 0.06 | 0.06 | 92 | 1010.5 |
| 20260902215816 | 63 | 216 | 3.5 | 6.1 | 0.00 | 0.06 | 0.06 | 92 | 1010.3 |
| 20260902215316 | 63 | 217 | 2.6 | 6.1 | 0.00 | 0.06 | 0.06 | 92 | 1010.4 |
| 20260902214816 | 63 | 239 | 3.5 | 7.0 | 0.00 | 0.06 | 0.06 | 92 | 1010.5 |
| 20260902214316 | 63 | 241 | 3.5 | 6.1 | 0.00 | 0.06 | 0.06 | 92 | 1010.6 |
| 20260902213816 | 63 | 228 | 4.3 | 7.8 | 0.00 | 0.06 | 0.06 | 91 | 1010.7 |
| 20260902213315 | 63 | 227 | 4.3 | 10.4 | 0.00 | 0.06 | 0.06 | 91 | 1010.7 |
| 20260902212816 | 63 | 215 | 3.5 | 7.8 | 0.00 | 0.06 | 0.06 | 91 | 1010.6 |
| 20260902212316 | 63 | 245 | 5.2 | 10.4 | 0.00 | 0.06 | 0.06 | 91 | 1010.5 |
| 20260902211815 | 63 | 222 | 5.2 | 10.4 | 0.00 | 0.06 | 0.06 | 91 | 1010.5 |
| 20260902211316 | 63 | 219 | 4.3 | 7.8 | 0.00 | 0.06 | 0.06 | 91 | 1010.5 |
| 20260902210316 | 63 | 219 | 3.5 | 7.0 | 0.00 | 0.06 | 0.06 | 91 | 1010.5 |
| 20260902205815 | 63 | 227 | 3.5 | 10.4 | 0.00 | 0.06 | 0.06 | 91 | 1010.5 |
| 20260902205315 | 63 | 245 | 3.5 | 7.8 | 0.00 | 0.06 | 0.06 | 91 | 1010.4 |
| 20260902204815 | 63 | 244 | 4.3 | 7.8 | 0.00 | 0.06 | 0.06 | 92 | 1010.4 |
| 20260902203816 | 63 | 219 | 3.5 | 8.7 | 0.00 | 0.06 | 0.06 | 92 | 1010.3 |
| 20260902203316 | 63 | 243 | 3.5 | 7.0 | 0.00 | 0.06 | 0.06 | 92 | 1010.4 |
| 20260902202816 | 63 | 214 | 2.6 | 6.1 | 0.00 | 0.06 | 0.06 | 92 | 1010.5 |
| 20260902202315 | 63 | 236 | 2.6 | 5.2 | 0.00 | 0.06 | 0.06 | 92 | 1010.4 |
| 20260902201816 | 63 | 248 | 2.6 | 7.0 | 0.00 | 0.06 | 0.06 | 92 | 1010.3 |
| 20260902201317 | 63 | 221 | 4.3 | 8.7 | 0.00 | 0.06 | 0.06 | 92 | 1010.4 |
| 20260902200815 | 63 | 238 | 3.5 | 6.1 | 0.00 | 0.06 | 0.06 | 92 | 1010.4 |
| 20260902195816 | 63 | 220 | 2.6 | 6.1 | 0.00 | 0.06 | 0.06 | 92 | 1010.4 |
| 20260902195315 | 63 | 241 | 2.6 | 7.0 | 0.00 | 0.06 | 0.06 | 93 | 1010.4 |
| 20260902194816 | 63 | 258 | 2.6 | 6.1 | 0.00 | 0.06 | 0.06 | 93 | 1010.3 |
| 20260902193315 | 63 | 248 | 4.3 | 6.1 | 0.00 | 0.06 | 0.06 | 93 | 1010.3 |
| 20260902192816 | 63 | 242 | 2.6 | 7.0 | 0.00 | 0.06 | 0.06 | 93 | 1010.2 |
| 20260902192316 | 63 | 252 | 3.5 | 7.0 | 0.00 | 0.06 | 0.06 | 93 | 1010.2 |
| 20260902191816 | 63 | 245 | 4.3 | 7.0 | 0.00 | 0.06 | 0.06 | 93 | 1010.2 |
| 20260902191316 | 63 | 247 | 4.3 | 7.8 | 0.00 | 0.06 | 0.06 | 94 | 1010.3 |
| 20260902190816 | 63 | 241 | 3.5 | 7.0 | 0.00 | 0.06 | 0.06 | 94 | 1010.3 |
| 20260902190315 | 63 | 239 | 3.5 | 6.1 | 0.00 | 0.06 | 0.06 | 94 | 1010.4 |
| 20260902185816 | 63 | 247 | 2.6 | 5.2 | 0.00 | 0.06 | 0.06 | 94 | 1010.4 |
| 20260902185318 | 63 | 249 | 3.5 | 5.2 | 0.00 | 0.06 | 0.06 | 94 | 1010.5 |
| 20260902184816 | 63 | 256 | 1.7 | 5.2 | 0.00 | 0.06 | 0.06 | 94 | 1010.4 |
| 20260902184316 | 63 | 241 | 2.6 | 5.2 | 0.00 | 0.06 | 0.06 | 94 | 1010.5 |
| 20260902183815 | 63 | 208 | 2.6 | 5.2 | 0.00 | 0.06 | 0.06 | 94 | 1010.5 |
| 20260902183315 | 63 | 212 | 0.9 | 2.6 | 0.00 | 0.06 | 0.06 | 94 | 1010.4 |
| 20260902182815 | 63 | 186 | 0.9 | 2.6 | 0.00 | 0.06 | 0.06 | 94 | 1010.4 |
| 20260902182316 | 63 | 186 | 1.7 | 4.3 | 0.00 | 0.06 | 0.06 | 94 | 1010.4 |
| 20260902181816 | 63 | 199 | 2.6 | 4.3 | 0.00 | 0.06 | 0.06 | 93 | 1010.4 |
| 20260902181316 | 63 | 216 | 2.6 | 5.2 | 0.00 | 0.06 | 0.06 | 93 | 1010.5 |
| 20260902180816 | 63 | 211 | 2.6 | 5.2 | 0.00 | 0.06 | 0.06 | 93 | 1010.4 |
| 20260902180315 | 63 | 198 | 1.7 | 7.0 | 0.00 | 0.06 | 0.06 | 92 | 1010.4 |
| 20260902175815 | 63 | 236 | 1.7 | 4.3 | 0.00 | 0.06 | 0.06 | 92 | 1010.4 |
| 20260902175315 | 63 | 207 | 1.7 | 2.6 | 0.00 | 0.06 | 0.06 | 92 | 1010.4 |
| 20260902174817 | 63 | 196 | 1.7 | 5.2 | 0.00 | 0.06 | 0.06 | 92 | 1010.4 |
| 20260902174315 | 63 | 205 | 2.6 | 4.3 | 0.00 | 0.06 | 0.06 | 92 | 1010.4 |
| 20260902173816 | 63 | 183 | 1.7 | 2.6 | 0.00 | 0.06 | 0.06 | 92 | 1010.4 |
| 20260902173317 | 63 | 183 | 1.7 | 4.3 | 0.00 | 0.06 | 0.06 | 92 | 1010.5 |
| 20260902172815 | 63 | 193 | 1.7 | 4.3 | 0.00 | 0.06 | 0.06 | 92 | 1010.5 |
| 20260902172317 | 63 | 191 | 0.9 | 2.6 | 0.00 | 0.06 | 0.06 | 92 | 1010.5 |
| 20260902171815 | 63 | 191 | 0.9 | 2.6 | 0.00 | 0.06 | 0.06 | 92 | 1010.6 |
| 20260902171316 | 63 | 197 | 0.9 | 1.7 | 0.00 | 0.06 | 0.06 | 92 | 1010.6 |
| 20260902170815 | 63 | 197 | 0.9 | 2.6 | 0.00 | 0.06 | 0.06 | 91 | 1010.6 |
| 20260902170315 | 63 | 209 | 0.9 | 2.6 | 0.00 | 0.06 | 0.06 | 91 | 1010.7 |
| 20260902165816 | 64 | 209 | 0.9 | 2.6 | 0.00 | 0.06 | 0.06 | 91 | 1010.8 |
| 20260902165314 | 64 | 195 | 1.7 | 5.2 | 0.00 | 0.06 | 0.06 | 90 | 1010.9 |
| 20260902164816 | 64 | 204 | 3.5 | 6.1 | 0.00 | 0.06 | 0.06 | 90 | 1011.0 |
| 20260902164317 | 64 | 210 | 2.6 | 6.1 | 0.00 | 0.06 | 0.06 | 90 | 1011.0 |
| 20260902163315 | 64 | 190 | 4.3 | 7.0 | 0.00 | 0.06 | 0.06 | 89 | 1011.0 |
| 20260902162816 | 64 | 162 | 2.6 | 8.7 | 0.00 | 0.06 | 0.06 | 90 | 1010.9 |
| 20260902161816 | 63 | 174 | 3.5 | 7.0 | 0.00 | 0.06 | 0.06 | 90 | 1011.2 |
| 20260902161316 | 63 | 188 | 4.3 | 10.4 | 0.00 | 0.06 | 0.06 | 91 | 1011.3 |
| 20260902160816 | 63 | 200 | 3.5 | 8.7 | 0.00 | 0.06 | 0.06 | 92 | 1011.3 |
| 20260902160315 | 62 | 151 | 2.6 | 7.0 | 0.00 | 0.06 | 0.06 | 93 | 1011.3 |
| 20260902155816 | 62 | 151 | 1.7 | 5.2 | 0.00 | 0.06 | 0.06 | 93 | 1011.3 |
| 20260902154815 | 61 | 135 | 1.7 | 6.1 | 0.00 | 0.06 | 0.06 | 93 | 1011.4 |
| 20260902154316 | 61 | 133 | 2.6 | 4.3 | 0.00 | 0.06 | 0.06 | 93 | 1011.5 |
| 20260902153816 | 61 | 76 | 1.7 | 4.3 | 0.00 | 0.06 | 0.06 | 93 | 1011.6 |
| 20260902153315 | 61 | 111 | 1.7 | 5.2 | 0.00 | 0.06 | 0.06 | 93 | 1011.7 |
| 20260902152816 | 61 | 71 | 0.9 | 2.6 | 0.00 | 0.06 | 0.06 | 93 | 1011.7 |
| 20260902152315 | 61 | 76 | 1.7 | 2.6 | 0.00 | 0.06 | 0.06 | 93 | 1011.8 |
| 20260902151816 | 61 | 100 | 1.7 | 2.6 | 0.00 | 0.06 | 0.06 | 93 | 1011.8 |
| 20260902151315 | 61 | 110 | 1.7 | 6.1 | 0.00 | 0.06 | 0.06 | 93 | 1011.9 |
| 20260902150815 | 61 | 133 | 2.6 | 6.1 | 0.00 | 0.06 | 0.06 | 93 | 1011.9 |
| 20260902150316 | 61 | 144 | 1.7 | 4.3 | 0.01 | 0.06 | 0.06 | 93 | 1011.9 |
| 20260902145816 | 61 | 151 | 0.9 | 4.3 | 0.01 | 0.06 | 0.06 | 93 | 1012.0 |
| 20260902145316 | 61 | 180 | 2.6 | 5.2 | 0.02 | 0.06 | 0.06 | 93 | 1012.0 |
| 20260902144815 | 60 | 151 | 0.9 | 4.3 | 0.02 | 0.06 | 0.06 | 93 | 1012.2 |
| 20260902144315 | 60 | 158 | 2.6 | 5.2 | 0.02 | 0.06 | 0.06 | 93 | 1012.2 |
| 20260902143815 | 60 | 115 | 2.6 | 5.2 | 0.02 | 0.06 | 0.06 | 94 | 1012.2 |
| 20260902143315 | 60 | 103 | 1.7 | 4.3 | 0.02 | 0.06 | 0.06 | 94 | 1012.2 |
| 20260902142815 | 60 | 111 | 2.6 | 4.3 | 0.02 | 0.06 | 0.06 | 94 | 1012.3 |
| 20260902142315 | 60 | 77 | 2.6 | 6.1 | 0.02 | 0.06 | 0.06 | 93 | 1012.3 |
| 20260902141815 | 60 | 106 | 4.3 | 7.8 | 0.02 | 0.06 | 0.06 | 93 | 1012.4 |
| 20260902141315 | 60 | 108 | 2.6 | 6.1 | 0.02 | 0.06 | 0.06 | 93 | 1012.5 |
| 20260902140315 | 60 | 94 | 4.3 | 7.8 | 0.02 | 0.06 | 0.06 | 93 | 1012.6 |
| 20260902135816 | 60 | 77 | 3.5 | 7.0 | 0.02 | 0.06 | 0.06 | 93 | 1012.6 |
| 20260902134815 | 60 | 93 | 1.7 | 5.2 | 0.01 | 0.05 | 0.05 | 92 | 1012.7 |
| 20260902134315 | 60 | 105 | 1.7 | 4.3 | 0.02 | 0.05 | 0.05 | 92 | 1012.9 |
| 20260902133815 | 60 | 115 | 2.6 | 6.1 | 0.02 | 0.05 | 0.05 | 91 | 1012.9 |
| 20260902133315 | 60 | 117 | 4.3 | 7.8 | 0.01 | 0.04 | 0.04 | 90 | 1012.9 |
| 20260902132815 | 60 | 116 | 2.6 | 6.1 | 0.01 | 0.04 | 0.04 | 90 | 1013.0 |
| 20260902131815 | 60 | 123 | 2.6 | 7.0 | 0.01 | 0.04 | 0.04 | 90 | 1013.1 |
| 20260902131315 | 60 | 114 | 4.3 | 7.0 | 0.01 | 0.04 | 0.04 | 90 | 1013.1 |
| 20260902130815 | 60 | 99 | 2.6 | 7.8 | 0.01 | 0.04 | 0.04 | 90 | 1013.2 |
| 20260902125315 | 60 | 103 | 2.6 | 7.0 | 0.01 | 0.04 | 0.04 | 89 | 1013.4 |
| 20260902124315 | 60 | 105 | 2.6 | 6.1 | 0.00 | 0.03 | 0.03 | 89 | 1013.5 |
| 20260902123815 | 60 | 95 | 1.7 | 6.1 | 0.00 | 0.03 | 0.03 | 89 | 1013.5 |
| 20260902123316 | 60 | 155 | 2.6 | 6.1 | 0.01 | 0.03 | 0.03 | 88 | 1013.5 |
| 20260902122314 | 60 | 111 | 4.3 | 7.0 | 0.02 | 0.03 | 0.03 | 88 | 1013.7 |
| 20260902121815 | 60 | 112 | 4.3 | 7.8 | 0.02 | 0.03 | 0.03 | 88 | 1013.8 |
| 20260902120815 | 60 | 95 | 2.6 | 5.2 | 0.02 | 0.03 | 0.03 | 89 | 1013.8 |
| 20260902120315 | 60 | 88 | 2.6 | 6.1 | 0.02 | 0.03 | 0.03 | 89 | 1014.0 |
| 20260902115815 | 60 | 143 | 2.6 | 5.2 | 0.02 | 0.03 | 0.03 | 89 | 1014.1 |
| 20260902115315 | 60 | 202 | 2.6 | 6.1 | 0.02 | 0.03 | 0.03 | 87 | 1014.2 |
| 20260902114815 | 60 | 162 | 2.6 | 6.1 | 0.03 | 0.03 | 0.03 | 88 | 1014.3 |
| 20260902113815 | 60 | 154 | 2.6 | 7.0 | 0.03 | 0.03 | 0.03 | 87 | 1014.4 |
| 20260902113315 | 60 | 154 | 2.6 | 7.0 | 0.02 | 0.02 | 0.02 | 86 | 1014.6 |
| 20260902112816 | 60 | 158 | 3.5 | 6.1 | 0.02 | 0.02 | 0.02 | 85 | 1014.6 |
| 20260902111816 | 60 | 175 | 2.6 | 7.0 | 0.01 | 0.01 | 0.01 | 85 | 1014.9 |
| 20260902110316 | 60 | 185 | 2.6 | 7.0 | 0.01 | 0.01 | 0.01 | 86 | 1015.0 |
| 20260902104816 | 61 | 164 | 4.3 | 6.1 | 0.00 | 0.00 | 0.00 | 82 | 1015.1 |
| 20260902104315 | 61 | 182 | 4.3 | 7.8 | 0.00 | 0.00 | 0.00 | 81 | 1015.2 |
| 20260902103315 | 61 | 170 | 2.6 | 7.0 | 0.00 | 0.00 | 0.00 | 83 | 1015.2 |
| 20260902102815 | 61 | 184 | 2.6 | 6.1 | 0.00 | 0.00 | 0.00 | 83 | 1015.2 |
| 20260902102314 | 61 | 182 | 3.5 | 8.7 | 0.00 | 0.00 | 0.00 | 83 | 1015.1 |
| 20260902101815 | 61 | 178 | 5.2 | 8.7 | 0.00 | 0.00 | 0.00 | 84 | 1015.2 |
| 20260902101315 | 61 | 193 | 3.5 | 7.0 | 0.00 | 0.00 | 0.00 | 86 | 1015.2 |
| 20260902100815 | 61 | 219 | 4.3 | 7.0 | 0.00 | 0.00 | 0.00 | 85 | 1015.3 |
| 20260902100315 | 61 | 211 | 2.6 | 7.0 | 0.00 | 0.00 | 0.00 | 86 | 1015.3 |
| 20260902095815 | 60 | 190 | 3.5 | 7.0 | 0.00 | 0.00 | 0.00 | 87 | 1015.3 |
| 20260902094815 | 60 | 208 | 2.6 | 6.1 | 0.00 | 0.00 | 0.00 | 89 | 1015.4 |
| 20260902093815 | 60 | 197 | 2.6 | 6.1 | 0.00 | 0.00 | 0.00 | 89 | 1015.3 |
| 20260902093315 | 59 | 200 | 2.6 | 4.3 | 0.00 | 0.00 | 0.00 | 89 | 1015.4 |
| 20260902092815 | 59 | 194 | 2.6 | 4.3 | 0.00 | 0.00 | 0.00 | 89 | 1015.4 |
| 20260902092314 | 59 | 175 | 2.6 | 4.3 | 0.00 | 0.00 | 0.00 | 89 | 1015.4 |
| 20260902091815 | 59 | 214 | 4.3 | 7.8 | 0.00 | 0.00 | 0.00 | 89 | 1015.4 |
| 20260902091315 | 59 | 207 | 4.3 | 7.0 | 0.00 | 0.00 | 0.00 | 89 | 1015.4 |
| 20260902090315 | 59 | 186 | 2.6 | 5.2 | 0.00 | 0.00 | 0.00 | 89 | 1015.4 |
| 20260902085815 | 59 | 225 | 2.6 | 6.1 | 0.00 | 0.00 | 0.00 | 89 | 1015.4 |
| 20260902085315 | 59 | 201 | 2.6 | 6.1 | 0.00 | 0.00 | 0.00 | 89 | 1015.5 |
| 20260902084815 | 59 | 184 | 1.7 | 5.2 | 0.00 | 0.00 | 0.00 | 89 | 1015.4 |
| 20260902083815 | 59 | 217 | 1.7 | 4.3 | 0.00 | 0.00 | 0.00 | 89 | 1015.5 |
| 20260902083315 | 59 | 194 | 2.6 | 4.3 | 0.00 | 0.00 | 0.00 | 89 | 1015.4 |
| 20260902082816 | 59 | 205 | 1.7 | 4.3 | 0.00 | 0.00 | 0.00 | 89 | 1015.4 |
| 20260902082314 | 58 | 196 | 2.6 | 5.2 | 0.00 | 0.00 | 0.00 | 89 | 1015.4 |
| 20260902081815 | 58 | 187 | 1.7 | 5.2 | 0.00 | 0.00 | 0.00 | 89 | 1015.5 |
| 20260902080815 | 58 | 267 | 2.6 | 5.2 | 0.00 | 0.00 | 0.00 | 89 | 1015.5 |
| 20260902080315 | 58 | 244 | 1.7 | 2.6 | 0.00 | 0.00 | 0.00 | 88 | 1015.5 |
| 20260902075814 | 58 | 237 | 4.3 | 7.8 | 0.00 | 0.00 | 0.00 | 88 | 1015.5 |
| 20260902074815 | 58 | 288 | 1.7 | 4.3 | 0.00 | 0.00 | 0.00 | 89 | 1015.5 |
| 20260902074314 | 58 | 215 | 1.7 | 2.6 | 0.00 | 0.00 | 0.00 | 89 | 1015.4 |
| 20260902073814 | 58 | 196 | 1.7 | 5.2 | 0.00 | 0.00 | 0.00 | 89 | 1015.5 |
| 20260902073315 | 58 | 220 | 0.9 | 2.6 | 0.00 | 0.00 | 0.00 | 89 | 1015.4 |
| 20260902072815 | 58 | 226 | 2.6 | 4.3 | 0.00 | 0.00 | 0.00 | 89 | 1015.3 |
| 20260902072316 | 58 | 270 | 2.6 | 4.3 | 0.00 | 0.00 | 0.00 | 89 | 1015.3 |
| 20260902071315 | 58 | 162 | 1.7 | 5.2 | 0.00 | 0.00 | 0.00 | 89 | 1015.3 |
| 20260902070815 | 58 | 154 | 1.7 | 4.3 | 0.00 | 0.00 | 0.00 | 89 | 1015.3 |
| 20260902070315 | 57 | 210 | 1.7 | 4.3 | 0.00 | 0.00 | 0.00 | 89 | 1015.3 |
| 20260902065314 | 57 | 181 | 1.7 | 4.3 | 0.00 | 0.00 | 0.00 | 89 | 1015.2 |
| 20260902064815 | 57 | 176 | 0.9 | 2.6 | 0.00 | 0.00 | 0.00 | 89 | 1015.2 |
| 20260902063814 | 57 | 209 | 2.6 | 5.2 | 0.00 | 0.00 | 0.00 | 89 | 1015.2 |
| 20260902063314 | 57 | 217 | 1.7 | 4.3 | 0.00 | 0.00 | 0.00 | 89 | 1015.1 |
| 20260902062815 | 57 | 217 | 2.6 | 5.2 | 0.00 | 0.00 | 0.00 | 90 | 1015.2 |
| 20260902062314 | 57 | 194 | 2.6 | 5.2 | 0.00 | 0.00 | 0.00 | 90 | 1015.2 |
| 20260902061814 | 57 | 194 | 2.6 | 6.1 | 0.00 | 0.00 | 0.00 | 90 | 1015.2 |
| 20260902061315 | 57 | 197 | 0.9 | 2.6 | 0.00 | 0.00 | 0.00 | 90 | 1015.3 |
| 20260902060815 | 57 | 229 | 2.6 | 5.2 | 0.00 | 0.00 | 0.00 | 90 | 1015.2 |
| 20260902055815 | 57 | 183 | 3.5 | 6.1 | 0.00 | 0.00 | 0.00 | 90 | 1015.0 |
| 20260902055315 | 57 | 184 | 1.7 | 4.3 | 0.00 | 0.00 | 0.00 | 90 | 1015.0 |
| 20260902054815 | 57 | 181 | 0.9 | 2.6 | 0.00 | 0.00 | 0.00 | 90 | 1014.9 |
| 20260902054314 | 57 | 135 | 0.9 | 1.7 | 0.00 | 0.00 | 0.00 | 90 | 1014.9 |
| 20260902053815 | 57 | 135 | 0.0 | 1.7 | 0.00 | 0.00 | 0.00 | 90 | 1014.9 |
| 20260902053315 | 57 | 135 | 0.0 | 1.7 | 0.00 | 0.00 | 0.00 | 90 | 1015.0 |
| 20260902052815 | 57 | 135 | 0.0 | 0.9 | 0.00 | 0.00 | 0.00 | 90 | 1015.0 |
| 20260902052314 | 57 | 135 | 0.9 | 1.7 | 0.00 | 0.00 | 0.00 | 89 | 1015.0 |
| 20260902051815 | 57 | 135 | 0.0 | 1.7 | 0.00 | 0.00 | 0.00 | 89 | 1014.9 |
| 20260902051314 | 57 | 135 | 0.9 | 2.6 | 0.00 | 0.00 | 0.00 | 89 | 1014.9 |
| 20260902050815 | 57 | 135 | 0.9 | 1.7 | 0.00 | 0.00 | 0.00 | 89 | 1015.0 |
| 20260902050316 | 57 | 135 | 0.9 | 1.7 | 0.00 | 0.00 | 0.00 | 89 | 1014.9 |
| 20260902045814 | 58 | 159 | 0.9 | 1.7 | 0.00 | 0.00 | 0.00 | 89 | 1014.9 |
| 20260902045315 | 58 | 271 | 0.9 | 1.7 | 0.00 | 0.00 | 0.00 | 89 | 1014.9 |
| 20260902044814 | 58 | 271 | 0.9 | 0.9 | 0.00 | 0.00 | 0.00 | 89 | 1014.9 |
| 20260902043315 | 58 | 271 | 0.0 | 0.9 | 0.00 | 0.00 | 0.00 | 89 | 1015.0 |
| 20260902042815 | 58 | 271 | 0.0 | 0.9 | 0.00 | 0.00 | 0.00 | 89 | 1015.0 |
| 20260902042314 | 58 | 271 | 0.0 | 1.7 | 0.00 | 0.00 | 0.00 | 89 | 1015.0 |
| 20260902041815 | 58 | 271 | 0.0 | 1.7 | 0.00 | 0.00 | 0.00 | 88 | 1015.0 |